Location: Errabaliem
(16.8108°N, 80.4255°E)
Time: 07:53:02
(UTC+00:00)

Cosmos 2237 Rocket - Pass Details

Date: 05 August 2024
Orbit: 836 x 847 km, 71.0° (Epoch: 10 September)

Event Time Altitude Azimuth Distance (km) Brightness Sun altitude
Exits shadow 22:25:27 28° 319° (NW) 1,536 3.4 -26.1°
Drops below altitude 10° 22:28:54 10° 352° (N) 2,452 4.8 -25.3°
Sets 22:31:36 0° 2° (N) 3,386 5.7 -24.8°
